N4OGP-WX Weather Reports


time (UTC)temp
C
wind
direction
speed
KPH
gust
KPH
rain 1hr
cm
rain 24hr
cm
rain mn
cm
humidity
%
barometer
mb
20260505070826 15 293 0.0 0.0 0.00 0.69 0.69 83 1010.7
20260505070726 15 293 0.0 0.0 0.00 0.69 0.69 83 1010.7
20260505070626 15 293 0.0 0.0 0.00 0.69 0.69 83 1010.7
20260505070526 15 293 0.0 0.0 0.00 0.69 0.69 83 1010.8
20260505070426 23 294 0.0 0.0 0.00 0.69 0.69 42 1020.4
20260505070326 15 293 0.0 0.0 0.00 0.69 0.69 83 1010.8
20260505070226 15 293 0.0 0.0 0.00 0.69 0.69 83 1010.9
20260505070126 23 294 0.0 0.0 0.00 0.69 0.69 42 1020.4
20260505065956 23 294 0.0 0.0 0.00 0.69 0.69 42 1020.4
20260505065856 15 293 0.0 0.0 0.00 0.69 0.69 83 1011.0
20260505065756 23 294 0.0 0.0 0.00 0.69 0.69 42 1020.4
20260505065656 15 293 0.0 0.0 0.00 0.69 0.69 82 1011.0
20260505065526 23 294 0.0 0.0 0.00 0.69 0.69 42 1020.4
20260505065426 23 294 0.0 0.0 0.00 0.69 0.69 42 1020.4
20260505065256 23 294 0.0 0.0 0.00 0.69 0.69 42 1020.4
20260505065156 23 294 0.0 0.0 0.00 0.69 0.69 42 1020.4
20260505065056 15 293 0.0 0.0 0.00 0.69 0.69 82 1011.1
20260505064956 23 294 0.0 0.0 0.00 0.69 0.69 42 1020.4
20260505064856 23 294 0.0 0.0 0.00 0.69 0.69 42 1020.4
20260505064756 23 294 0.0 0.0 0.00 0.69 0.69 42 1020.4
20260505064656 15 293 0.0 0.0 0.00 0.69 0.69 82 1011.2
20260505064556 15 293 0.0 0.0 0.00 0.69 0.69 82 1011.2
20260505064456 15 293 0.0 0.0 0.00 0.69 0.69 82 1011.2
20260505064356 15 293 0.0 0.0 0.00 0.69 0.69 82 1011.2
20260505064226 15 293 0.0 0.0 0.00 0.69 0.69 82 1011.3
20260505064126 23 294 0.0 0.0 0.00 0.69 0.69 42 1020.4
20260505064026 23 294 0.0 0.0 0.00 0.69 0.69 42 1020.4
20260505063926 23 294 0.0 0.0 0.00 0.69 0.69 42 1020.4
20260505063826 23 294 0.0 0.0 0.00 0.69 0.69 42 1020.4
20260505063656 23 294 0.0 0.0 0.00 0.69 0.69 42 1020.4
20260505063556 15 293 0.0 0.0 0.00 0.69 0.69 81 1011.4
20260505063426 15 293 0.0 0.0 0.00 0.69 0.69 81 1011.4
20260505063326 23 294 0.0 0.0 0.00 0.69 0.69 42 1020.4
20260505063156 15 293 0.0 0.0 0.00 0.69 0.69 81 1011.4
20260505063056 23 294 0.0 0.0 0.00 0.69 0.69 42 1020.4
20260505062956 15 292 0.0 1.6 0.00 0.69 0.69 81 1011.4
20260505062856 15 278 0.0 1.6 0.00 0.69 0.69 81 1011.4
20260505062756 23 279 0.0 0.0 0.00 0.69 0.69 42 1020.4
20260505062656 23 279 0.0 0.0 0.00 0.69 0.69 42 1020.4
20260505062556 23 279 0.0 0.0 0.00 0.69 0.69 42 1020.4
20260505062456 23 279 0.0 0.0 0.00 0.69 0.69 42 1020.4
20260505062326 23 279 0.0 0.0 0.00 0.69 0.69 42 1020.4
20260505062226 23 279 0.0 0.0 0.00 0.69 0.69 42 1020.4
20260505062126 23 279 0.0 0.0 0.00 0.69 0.69 42 1020.4
20260505062026 23 279 0.0 0.0 0.00 0.69 0.69 42 1020.4
20260505061926 15 279 0.0 0.0 0.00 0.69 0.69 80 1011.4
20260505061756 15 279 0.0 0.0 0.00 0.69 0.69 80 1011.5
20260505061656 23 279 0.0 0.0 0.00 0.69 0.69 42 1020.4
20260505061556 23 279 0.0 0.0 0.00 0.69 0.69 42 1020.4
20260505061456 23 279 0.0 0.0 0.00 0.69 0.69 42 1020.4
20260505061326 23 279 0.0 0.0 0.00 0.69 0.69 42 1020.4
20260505061226 15 282 0.0 1.6 0.00 0.69 0.69 80 1011.5
20260505061056 15 279 0.0 0.0 0.00 0.69 0.69 80 1011.5
20260505060956 15 279 0.0 0.0 0.00 0.69 0.69 80 1011.5
20260505060856 15 279 0.0 0.0 0.00 0.69 0.69 80 1011.6
20260505060756 23 280 0.0 0.0 0.00 0.69 0.69 42 1020.4
20260505060656 16 279 0.0 0.0 0.00 0.69 0.69 79 1011.6
20260505060556 16 279 0.0 0.0 0.00 0.69 0.69 79 1011.6
20260505060456 23 280 0.0 0.0 0.00 0.69 0.69 42 1020.4
20260505060356 23 279 0.0 0.0 0.00 0.69 0.69 42 1020.4
20260505060226 16 282 0.0 1.6 0.00 0.69 0.69 79 1011.6
20260505060126 16 277 0.0 1.6 0.00 0.69 0.69 79 1011.6
20260505060026 16 251 0.0 1.6 0.69 0.69 0.69 79 1011.6
20260505055926 16 250 0.0 0.0 0.00 0.69 0.69 79 1011.6
20260505055826 23 270 0.0 0.0 0.00 0.69 0.69 42 1020.4
20260505055726 23 270 0.0 0.0 0.00 0.69 0.69 42 1020.4
20260505055626 23 270 0.0 0.0 0.00 0.69 0.69 42 1020.4
20260505055456 23 270 0.0 0.0 0.00 0.69 0.69 42 1020.4
20260505055326 23 270 0.0 0.0 0.00 0.69 0.69 42 1020.4
20260505055156 23 270 0.0 0.0 0.00 0.69 0.69 42 1020.4
20260505055056 16 250 0.0 0.0 0.00 0.69 0.69 79 1011.8
20260505054926 15 263 0.0 1.6 0.00 0.69 0.69 79 1011.8
20260505054826 23 243 0.0 1.6 0.00 0.69 0.69 42 1020.4
20260505054726 15 245 0.0 0.0 0.00 0.69 0.69 79 1011.8
20260505054556 15 245 0.0 0.0 0.00 0.69 0.69 79 1011.8
20260505054456 15 245 0.0 0.0 0.00 0.69 0.69 79 1011.8
20260505054326 23 246 0.0 0.0 0.00 0.69 0.69 42 1020.4
20260505054226 15 245 0.0 0.0 0.00 0.69 0.69 79 1011.9
20260505054056 15 245 0.0 0.0 0.00 0.69 0.69 79 1012.0
20260505053956 15 245 0.0 0.0 0.00 0.69 0.69 79 1012.0
20260505053856 23 246 0.0 0.0 0.00 0.69 0.69 42 1020.4
20260505053756 15 245 0.0 0.0 0.00 0.69 0.69 79 1012.0
20260505053656 15 257 0.0 1.6 0.00 0.69 0.69 79 1012.0
20260505053556 23 271 0.0 0.0 0.00 0.69 0.69 42 1020.4
20260505053456 15 271 0.0 1.6 0.00 0.69 0.69 79 1012.0
20260505053356 15 247 0.0 1.6 0.00 0.69 0.69 79 1012.1
20260505053226 15 276 0.0 1.6 0.00 0.69 0.69 79 1012.0
20260505053126 23 288 0.0 0.0 0.00 0.69 0.69 42 1020.4
20260505053026 15 288 0.0 0.0 0.00 0.69 0.69 79 1012.0
20260505052926 23 288 0.0 1.6 0.00 0.69 0.69 42 1020.4
20260505052826 15 288 0.0 1.6 0.00 0.69 0.69 79 1011.9
20260505052726 15 288 0.0 0.0 0.00 0.69 0.69 79 1011.9
20260505052626 23 289 0.0 0.0 0.00 0.69 0.69 42 1020.4
20260505052456 15 288 0.0 0.0 0.00 0.69 0.69 80 1011.9
20260505052356 23 289 0.0 0.0 0.00 0.69 0.69 42 1020.4
20260505052256 23 289 0.0 0.0 0.00 0.69 0.69 42 1020.4
20260505052156 15 288 0.0 0.0 0.00 0.69 0.69 79 1011.8
20260505052056 23 289 0.0 0.0 0.00 0.69 0.69 42 1020.4
20260505051956 23 289 0.0 0.0 0.00 0.69 0.69 42 1020.4
20260505051856 23 289 0.0 0.0 0.00 0.69 0.69 42 1020.4
20260505051756 23 288 0.0 1.6 0.00 0.69 0.69 42 1020.4
20260505051656 23 295 0.0 1.6 0.00 0.69 0.69 42 1020.4
20260505051526 23 298 0.0 0.0 0.00 0.69 0.69 42 1020.4
20260505051426 23 298 0.0 0.0 0.00 0.69 0.69 42 1020.4
20260505051326 15 297 0.0 0.0 0.00 0.69 0.69 80 1011.8
20260505051156 23 298 0.0 0.0 0.00 0.69 0.69 42 1020.4
20260505051056 23 298 0.0 0.0 0.00 0.69 0.69 42 1020.4
20260505050956 23 298 0.0 0.0 0.00 0.69 0.69 42 1020.4
20260505050856 15 297 0.0 0.0 0.00 0.69 0.69 79 1011.6
20260505050756 23 298 0.0 0.0 0.00 0.69 0.69 42 1020.4
20260505050656 15 297 0.0 0.0 0.00 0.69 0.69 79 1011.7
20260505050556 15 297 0.0 0.0 0.00 0.69 0.69 79 1011.8
20260505050426 23 298 0.0 0.0 0.00 0.69 0.69 42 1020.4
20260505050326 23 298 0.0 0.0 0.00 0.69 0.69 42 1020.4
20260505050226 23 298 0.0 0.0 0.00 0.69 0.69 42 1020.4
20260505050126 23 288 0.0 1.6 0.00 0.69 0.69 42 1020.4
20260505041726 17 286 0.0 0.0 0.00 0.69 0.69 74 1012.0
20260505041626 23 285 0.0 0.0 0.00 0.69 0.69 42 1020.4
20260505041526 17 286 0.0 1.6 0.00 0.69 0.69 73 1012.0
20260505041426 17 268 0.0 1.6 0.00 0.69 0.69 73 1012.0
20260505041326 17 265 0.0 0.0 0.00 0.69 0.69 73 1012.0
20260505041226 23 265 0.0 0.0 0.00 0.69 0.69 42 1020.4
20260505041126 17 319 0.0 0.0 0.00 0.69 0.69 72 1012.0
20260505040956 17 320 0.0 0.0 0.00 0.69 0.69 72 1012.1
20260505040856 23 315 0.0 0.0 0.00 0.69 0.69 42 1020.4
20260505040756 17 320 0.0 0.0 0.00 0.69 0.69 71 1012.1
20260505040656 17 320 0.0 0.0 0.00 0.69 0.69 71 1012.1
20260505040556 23 315 0.0 0.0 0.00 0.69 0.69 42 1020.4
20260505040456 17 320 0.0 0.0 0.00 0.69 0.69 71 1012.2
20260505040326 23 315 0.0 0.0 0.00 0.69 0.69 42 1020.4
20260505040226 17 320 0.0 0.0 0.00 0.69 0.69 71 1012.3
20260505040126 17 320 0.0 0.0 0.00 0.69 0.69 71 1012.3
20260505040026 23 319 0.0 0.0 0.00 0.69 0.69 42 1020.4
20260505035926 23 320 0.0 0.0 0.00 0.69 0.69 42 1020.4
20260505035826 18 320 0.0 0.0 0.00 0.69 0.69 70 1012.3
20260505035726 23 320 0.0 0.0 0.00 0.69 0.69 42 1020.4
20260505035556 18 320 0.0 0.0 0.00 0.69 0.69 69 1012.2
20260505035456 23 322 0.0 3.2 0.00 0.69 0.69 42 1020.4
20260505035356 18 290 0.0 3.2 0.00 0.69 0.69 70 1012.2
20260505035256 23 289 0.0 0.0 0.00 0.69 0.69 42 1020.4
20260505035156 23 289 0.0 0.0 0.00 0.69 0.69 42 1020.4
20260505035056 23 289 0.0 0.0 0.00 0.69 0.69 42 1020.4
20260505034956 23 289 0.0 0.0 0.00 0.69 0.69 42 1020.4
20260505034826 23 283 0.0 1.6 0.00 0.69 0.69 42 1020.4
20260505034726 18 294 0.0 1.6 0.00 0.69 0.69 69 1012.2
20260505034626 23 308 0.0 0.0 0.00 0.69 0.69 42 1020.4
20260505034526 18 309 0.0 0.0 0.00 0.69 0.69 69 1012.2
20260505034426 23 317 0.0 3.2 0.00 0.69 0.69 42 1020.4
20260505034256 18 344 0.0 0.0 0.00 0.69 0.69 69 1012.1
20260505034156 18 344 0.0 0.0 0.00 0.69 0.69 69 1012.2
20260505034056 23 328 0.0 0.0 0.00 0.69 0.69 42 1020.4
20260505033956 18 344 0.0 0.0 0.00 0.69 0.69 68 1012.2
20260505033856 18 344 0.0 0.0 0.00 0.69 0.69 69 1012.1
20260505033726 23 301 0.0 1.6 0.00 0.69 0.69 42 1020.4
20260505033556 18 302 0.0 1.6 0.00 0.69 0.69 68 1012.2
20260505033456 23 345 0.0 0.0 0.00 0.69 0.69 42 1020.4
20260505033356 18 352 0.0 0.0 0.00 0.69 0.69 68 1012.1
20260505033226 23 16 0.0 0.0 0.00 0.69 0.69 42 1020.4
20260505033126 23 142 0.0 0.0 0.00 0.69 0.69 42 1020.4
20260505033026 18 120 0.0 0.0 0.00 0.69 0.69 69 1012.1
20260505032926 18 125 0.0 1.6 0.00 0.69 0.69 69 1012.1
20260505032756 23 102 0.0 4.8 0.00 0.69 0.69 42 1020.4
20260505032656 18 272 0.0 3.2 0.00 0.69 0.69 69 1012.2
20260505032526 18 271 0.0 0.0 0.00 0.69 0.69 69 1012.3
20260505032426 23 271 0.0 1.6 0.00 0.69 0.69 42 1020.4
20260505032326 23 160 0.0 4.8 0.00 0.69 0.69 42 1020.4
20260505032226 18 157 0.0 4.8 0.00 0.69 0.69 70 1012.2
20260505032056 18 158 0.0 0.0 0.00 0.69 0.69 70 1012.3
20260505031956 23 164 0.0 0.0 0.00 0.69 0.69 42 1020.4
20260505031826 18 158 0.0 0.0 0.00 0.69 0.69 69 1012.3
20260505031726 18 158 0.0 0.0 0.00 0.69 0.69 69 1012.3
20260505031626 23 164 0.0 0.0 0.00 0.69 0.69 42 1020.4
20260505031526 18 158 0.0 0.0 0.00 0.69 0.69 69 1012.2
20260505031356 23 164 0.0 0.0 0.00 0.69 0.69 42 1020.4
20260505031226 23 164 0.0 0.0 0.00 0.69 0.69 42 1020.4
20260505031126 23 164 0.0 0.0 0.00 0.69 0.69 42 1020.4
20260505031026 23 164 0.0 0.0 0.00 0.69 0.69 42 1020.4
20260505030926 18 158 0.0 0.0 0.00 0.69 0.69 69 1012.2
20260505030826 18 158 0.0 0.0 0.00 0.69 0.69 69 1012.1
20260505030656 18 158 0.0 0.0 0.00 0.69 0.69 69 1012.1
20260505030556 23 161 0.0 3.2 0.00 0.69 0.69 42 1020.4
20260505030426 18 176 0.0 3.2 0.00 0.69 0.69 69 1012.0
20260505030326 18 202 0.0 1.6 0.00 0.69 0.69 69 1012.0
20260505030226 23 196 0.0 0.0 0.00 0.69 0.69 42 1020.4
20260505030056 18 200 0.0 0.0 0.00 0.69 0.69 69 1012.1
20260505025956 18 197 0.0 3.2 0.00 0.69 0.69 69 1012.1
20260505025856 18 156 0.0 3.2 0.00 0.69 0.69 69 1012.1
20260505025726 18 149 0.0 0.0 0.00 0.69 0.69 69 1012.1
20260505025556 23 149 0.0 0.0 0.00 0.69 0.69 42 1020.4
20260505025456 18 149 0.0 0.0 0.00 0.69 0.69 68 1012.1
20260505025356 18 149 0.0 0.0 0.00 0.69 0.69 68 1012.1
20260505025226 23 149 0.0 0.0 0.00 0.69 0.69 42 1020.4
20260505025126 23 149 0.0 0.0 0.00 0.69 0.69 42 1020.4
20260505025026 23 149 0.0 0.0 0.00 0.69 0.69 42 1020.4
20260505024856 19 149 0.0 0.0 0.00 0.69 0.69 67 1012.1
20260505024756 19 149 0.0 0.0 0.00 0.69 0.69 67 1012.1
20260505024656 23 149 0.0 0.0 0.00 0.69 0.69 42 1020.4
20260505024556 19 149 0.0 0.0 0.00 0.69 0.69 67 1012.1
20260505024426 19 149 0.0 0.0 0.00 0.69 0.69 66 1012.1
20260505024326 23 149 0.0 1.6 0.00 0.69 0.69 42 1020.4
20260505024226 19 127 0.0 1.6 0.00 0.69 0.69 67 1012.2
20260505024056 19 129 0.0 3.2 0.00 0.69 0.69 67 1012.1
20260505023926 23 271 0.0 1.6 0.00 0.69 0.69 42 1020.4
20260505023826 19 253 0.0 1.6 0.00 0.69 0.69 66 1012.1
20260505023726 19 187 0.0 0.0 0.00 0.69 0.69 66 1012.1
20260505023626 23 179 0.0 0.0 0.00 0.69 0.69 42 1020.4
20260505023526 19 213 0.0 1.6 0.00 0.69 0.69 65 1012.1
20260505023426 23 265 0.0 0.0 0.00 0.69 0.69 42 1020.4
20260505023326 23 281 0.0 1.6 0.00 0.69 0.69 42 1020.4
20260505023226 19 314 0.0 1.6 0.00 0.69 0.69 65 1012.2
20260505023056 23 142 0.0 0.0 0.00 0.69 0.69 42 1020.4
20260505022956 19 142 0.0 0.0 0.00 0.69 0.69 64 1012.3
20260505022856 19 142 0.0 1.6 0.00 0.69 0.69 64 1012.3
20260505022756 23 324 0.0 1.6 0.00 0.69 0.69 42 1020.4
20260505022626 19 317 0.0 1.6 0.00 0.69 0.69 65 1012.3
20260505022526 23 165 0.0 3.2 0.00 0.69 0.69 42 1020.4
20260505022426 19 108 0.0 3.2 0.00 0.69 0.69 65 1012.2
20260505022326 19 24 0.0 0.0 0.00 0.69 0.69 66 1012.1
20260505022226 23 16 0.0 1.6 0.00 0.69 0.69 42 1020.4
20260505022056 19 294 0.0 3.2 0.00 0.69 0.69 66 1012.2
20260505021956 23 186 0.0 0.0 0.00 0.69 0.69 42 1020.4
20260505021856 23 167 0.0 1.6 0.00 0.69 0.69 42 1020.4
20260505021756 23 209 0.0 4.8 0.00 0.69 0.69 42 1020.4
20260505021626 19 138 0.0 4.8 0.00 0.69 0.69 66 1012.2
20260505021526 23 174 1.6 0.0 0.00 0.69 0.69 42 1020.4
20260505021356 19 187 0.0 8.0 0.00 0.69 0.69 65 1012.2
20260505021256 23 299 0.0 1.6 0.00 0.69 0.69 42 1020.4
20260505021156 19 6 0.0 0.0 0.00 0.69 0.69 66 1012.1
20260505021056 18 13 0.0 3.2 0.00 0.69 0.69 66 1012.1
20260505020956 23 120 0.0 3.2 0.00 0.69 0.69 42 1020.4
20260505020856 18 332 0.0 3.2 0.00 0.69 0.69 66 1012.1
20260505020726 18 303 0.0 1.6 0.00 0.69 0.69 66 1012.1
20260505020626 18 166 0.0 3.2 0.00 0.69 0.69 67 1012.1
20260505020526 23 185 0.0 3.2 0.00 0.69 0.69 42 1020.4
20260505020426 18 188 0.0 0.0 0.00 0.69 0.69 67 1012.2
20260505020256 18 188 0.0 0.0 0.00 0.69 0.69 67 1012.2
20260505020126 18 199 0.0 4.8 0.00 0.69 0.69 68 1012.1
20260505020026 23 300 0.0 1.6 0.00 0.69 0.69 42 1020.4
20260505015926 18 312 0.0 0.0 0.00 0.69 0.69 68 1012.1
20260505015826 18 313 1.6 3.2 0.00 0.69 0.69 68 1012.1
20260505015726 23 319 0.0 1.6 0.00 0.69 0.69 42 1020.4
20260505015626 18 133 0.0 0.0 0.00 0.69 0.69 69 1012.0
20260505015456 23 134 0.0 0.0 0.00 0.69 0.69 42 1020.4
20260505015356 23 134 0.0 0.0 0.00 0.69 0.69 42 1020.4
20260505015256 18 134 0.0 0.0 0.00 0.69 0.69 69 1012.0
20260505015156 23 192 0.0 1.6 0.00 0.69 0.69 42 1020.4
20260505015056 18 217 0.0 0.0 0.00 0.69 0.69 69 1011.9
20260505014956 18 217 0.0 0.0 0.00 0.69 0.69 69 1011.9
20260505014856 23 215 0.0 3.2 0.00 0.69 0.69 42 1020.4
20260505014756 23 23 0.0 3.2 0.00 0.69 0.69 42 1020.4
20260505014626 18 187 0.0 3.2 0.00 0.69 0.69 70 1011.9
20260505014526 23 146 0.0 3.2 0.00 0.69 0.69 42 1020.4
20260505014426 23 148 0.0 0.0 0.00 0.69 0.69 42 1020.4
20260505014326 18 148 0.0 0.0 0.00 0.69 0.69 69 1011.9
20260505014226 18 148 0.0 0.0 0.00 0.69 0.69 69 1011.9
20260505014126 18 148 0.0 0.0 0.00 0.69 0.69 69 1011.9
20260505014026 18 148 0.0 0.0 0.00 0.69 0.69 68 1012.0
20260505013926 18 148 0.0 0.0 0.00 0.69 0.69 68 1012.1
20260505013826 18 148 0.0 0.0 0.00 0.69 0.69 68 1012.1
20260505013656 23 228 0.0 1.6 0.00 0.69 0.69 42 1020.4
20260505013556 18 268 0.0 0.0 0.00 0.69 0.69 67 1012.2
20260505013456 23 260 0.0 0.0 0.00 0.69 0.69 42 1020.4
20260505013356 23 260 0.0 0.0 0.00 0.69 0.69 42 1020.4
20260505013256 23 260 0.0 0.0 0.00 0.69 0.69 42 1020.4
20260505013156 23 260 0.0 0.0 0.00 0.69 0.69 42 1020.4
20260505013056 23 260 0.0 0.0 0.00 0.69 0.69 42 1020.4
20260505012926 23 260 0.0 0.0 0.00 0.69 0.69 42 1020.4
20260505012756 19 268 0.0 0.0 0.00 0.69 0.69 66 1012.2
20260505012626 23 260 0.0 0.0 0.00 0.69 0.69 42 1020.4
20260505012526 19 268 0.0 0.0 0.00 0.69 0.69 65 1012.3
20260505012426 19 268 0.0 0.0 0.00 0.69 0.69 65 1012.3
20260505012326 19 268 0.0 0.0 0.00 0.69 0.69 65 1012.3
20260505012226 19 268 0.0 0.0 0.00 0.69 0.69 65 1012.3
20260505012126 23 260 0.0 0.0 0.00 0.69 0.69 42 1020.4
20260505012026 23 194 0.0 1.6 0.00 0.69 0.69 42 1020.4
20260505011926 23 160 0.0 0.0 0.00 0.69 0.69 42 1020.4
20260505011826 19 249 0.0 1.6 0.00 0.69 0.69 64 1012.3
20260505011726 23 298 0.0 0.0 0.00 0.69 0.69 42 1020.4
20260505011626 23 298 0.0 0.0 0.00 0.69 0.69 42 1020.4
20260505011526 19 330 0.0 0.0 0.00 0.69 0.69 63 1012.2
20260505011426 23 298 0.0 0.0 0.00 0.69 0.69 42 1020.4
20260505011326 19 330 0.0 0.0 0.00 0.69 0.69 63 1012.2
20260505011226 23 298 0.0 0.0 0.00 0.69 0.69 42 1020.4
20260505011056 20 330 0.0 0.0 0.00 0.69 0.69 62 1012.3
20260505010956 20 327 0.0 1.6 0.00 0.69 0.69 62 1012.3
20260505010826 23 316 0.0 1.6 0.00 0.69 0.69 42 1020.4
20260505010726 20 337 0.0 0.0 0.00 0.69 0.69 62 1012.3
20260505010626 23 337 0.0 0.0 0.00 0.69 0.69 42 1020.4
20260505010526 23 337 0.0 0.0 0.00 0.69 0.69 42 1020.4
20260505010426 20 337 0.0 0.0 0.00 0.69 0.69 61 1012.3
20260505010256 20 337 0.0 0.0 0.00 0.69 0.69 61 1012.3
20260505010156 23 337 0.0 0.0 0.00 0.69 0.69 42 1020.4
20260505010056 23 337 0.0 0.0 0.00 0.69 0.69 42 1020.4
20260505005956 20 337 0.0 0.0 0.00 0.69 0.69 60 1012.5
20260505005856 20 337 0.0 0.0 0.00 0.69 0.69 60 1012.5
20260505005756 20 239 0.0 0.0 0.00 0.69 0.69 60 1012.5
20260505005656 23 230 0.0 0.0 0.00 0.69 0.69 42 1020.4
20260505005526 23 230 0.0 0.0 0.00 0.69 0.69 42 1020.4
20260505005426 23 230 0.0 0.0 0.00 0.69 0.69 42 1020.4
20260505005326 20 230 0.0 0.0 0.00 0.69 0.69 59 1012.5
20260505005226 23 222 0.0 0.0 0.00 0.69 0.69 42 1020.4
20260505005126 20 220 0.0 0.0 0.00 0.69 0.69 58 1012.6
20260505005026 23 220 0.0 1.6 0.00 0.69 0.69 42 1020.4
20260505004926 20 229 0.0 1.6 0.00 0.69 0.69 58 1012.6
20260505004826 20 243 0.0 0.0 0.00 0.69 0.69 58 1012.7
20260505004726 23 206 0.0 1.6 0.00 0.69 0.69 42 1020.4
20260505004626 20 182 0.0 0.0 0.00 0.69 0.69 57 1012.7
20260505004526 23 181 1.6 1.6 0.00 0.69 0.69 42 1020.4
20260505004426 23 176 1.6 8.0 0.00 0.69 0.69 42 1020.4
20260505004326 23 44 0.0 1.6 0.00 0.69 0.69 42 1020.4
20260505004156 21 225 0.0 1.6 0.00 0.69 0.69 57 1012.7
20260505004056 21 184 0.0 0.0 0.00 0.69 0.69 57 1012.7
20260505003956 21 184 0.0 0.0 0.00 0.69 0.69 57 1012.6
20260505003856 23 193 0.0 1.6 0.00 0.69 0.69 42 1020.4
20260505003756 21 160 0.0 0.0 0.00 0.69 0.69 57 1012.6
20260505003656 23 160 0.0 0.0 0.00 0.69 0.69 42 1020.4
20260505003526 23 150 0.0 1.6 0.00 0.69 0.69 42 1020.4
20260505003426 23 111 0.0 3.2 0.00 0.69 0.69 42 1020.4
20260505003326 21 324 0.0 0.0 0.00 0.69 0.69 56 1012.6
20260505003156 23 202 0.0 1.6 0.00 0.69 0.69 42 1020.4
20260505003056 21 210 0.0 1.6 0.00 0.69 0.69 56 1012.6
20260505002956 21 231 0.0 1.6 0.00 0.69 0.69 56 1012.6
20260505002826 21 254 0.0 1.6 0.00 0.69 0.69 55 1012.7
20260505002726 23 258 0.0 1.6 0.00 0.69 0.69 42 1020.4
20260505002626 21 277 0.0 1.6 0.00 0.69 0.69 55 1012.7
20260505002526 21 288 1.6 3.2 0.00 0.69 0.69 55 1012.7
20260505002426 23 160 1.6 8.0 0.00 0.69 0.69 42 1020.4
20260505002326 21 148 0.0 4.8 0.00 0.69 0.69 55 1012.8
20260505002226 21 325 0.0 4.8 0.00 0.69 0.69 55 1012.8
20260505002126 23 152 0.0 0.0 0.00 0.69 0.69 42 1020.4
20260505001956 23 188 0.0 0.0 0.00 0.69 0.69 42 1020.4
20260505001856 23 231 0.0 3.2 0.00 0.69 0.69 42 1020.4
20260505001756 23 269 0.0 3.2 0.00 0.69 0.69 42 1020.4
20260505001656 23 257 1.6 1.6 0.00 0.69 0.69 42 1020.4
20260505001556 21 169 0.0 3.2 0.00 0.69 0.69 55 1012.7
20260505001456 23 243 0.0 3.2 0.00 0.69 0.69 42 1020.4
20260505001356 21 279 0.0 1.6 0.00 0.69 0.69 55 1012.7
20260505001226 23 225 1.6 4.8 0.00 0.69 0.69 42 1020.4
20260505001126 23 184 1.6 4.8 0.00 0.69 0.69 42 1020.4
20260505001026 23 194 1.6 4.8 0.00 0.69 0.69 42 1020.4
20260505000926 21 252 1.6 4.8 0.00 0.69 0.69 54 1012.6
20260505000826 21 183 1.6 4.8 0.00 0.69 0.69 54 1012.6
20260505000726 21 212 3.2 9.7 0.00 0.69 0.69 54 1012.6
20260505000556 23 280 0.0 3.2 0.00 0.69 0.69 42 1020.4
20260505000456 23 277 0.0 1.6 0.00 0.69 0.69 42 1020.4
20260505000358 23 229 1.6 8.0 0.00 0.69 0.69 42 1020.4
20260505000256 21 239 0.0 1.6 0.00 0.69 0.69 54 1012.7
20260505000126 21 270 1.6 3.2 0.00 0.69 0.69 54 1012.8
20260505000026 23 314 1.6 4.8 0.00 0.69 0.69 42 1020.4
20260504235856 23 141 3.2 8.0 0.00 0.69 0.69 42 1020.4
20260504235756 23 263 1.6 8.0 0.00 0.69 0.69 42 1020.4
20260504235656 22 207 3.2 4.8 0.00 0.69 0.69 54 1012.8
20260504235556 22 250 3.2 4.8 0.00 0.69 0.69 53 1012.8
20260504235456 23 204 1.6 8.0 0.00 0.69 0.69 42 1020.4
20260504235356 23 258 0.0 4.8 0.00 0.69 0.69 42 1020.4
20260504235226 23 312 1.6 3.2 0.00 0.69 0.69 42 1020.4
20260504235126 22 321 1.6 4.8 0.00 0.69 0.69 53 1012.9
20260504235026 22 325 1.6 4.8 0.00 0.69 0.69 52 1013.0
20260504234926 22 203 1.6 8.0 0.00 0.69 0.69 52 1013.0
20260504234826 23 163 0.0 8.0 0.00 0.69 0.69 42 1020.4
20260504234726 23 143 1.6 3.2 0.00 0.69 0.69 42 1020.4
20260504234556 22 222 1.6 4.8 0.00 0.69 0.69 52 1013.0
20260504234426 22 332 1.6 8.0 0.00 0.69 0.69 52 1013.0
20260504234326 23 113 1.6 3.2 0.00 0.69 0.69 42 1020.4
20260504234226 23 206 1.6 3.2 0.00 0.69 0.69 42 1020.4
20260504234126 22 319 1.6 4.8 0.00 0.69 0.69 52 1013.0
20260504233956 23 331 1.6 4.8 0.00 0.69 0.69 42 1020.4
20260504233856 22 162 1.6 4.8 0.00 0.69 0.69 52 1013.0
20260504233756 22 236 3.2 4.8 0.00 0.69 0.69 52 1013.0
20260504233656 22 260 3.2 9.7 0.00 0.69 0.69 51 1013.0
20260504233556 23 157 3.2 4.8 0.00 0.69 0.69 51 1013.0
20260504233456 23 91 1.6 4.8 0.00 0.69 0.69 42 1020.4
20260504233356 23 158 1.6 4.8 0.00 0.69 0.69 42 1020.4
20260504233256 23 190 1.6 8.0 0.00 0.69 0.69 50 1013.0
20260504233156 23 179 1.6 8.0 0.00 0.69 0.69 50 1013.0
20260504233056 23 192 1.6 3.2 0.00 0.69 0.69 50 1013.1
20260504232926 23 250 1.6 3.2 0.00 0.69 0.69 49 1013.0
20260504232826 23 122 1.6 8.0 0.00 0.69 0.69 42 1020.4
20260504232726 23 318 0.0 3.2 0.00 0.69 0.69 50 1013.0
20260504232626 23 330 0.0 3.2 0.00 0.69 0.69 42 1020.4
20260504232456 23 316 0.0 4.8 0.00 0.69 0.69 49 1013.0
20260504232356 23 331 1.6 3.2 0.00 0.69 0.69 42 1020.4
20260504232256 23 346 1.6 4.8 0.00 0.69 0.69 49 1013.0
20260504232156 23 316 3.2 4.8 0.00 0.69 0.69 42 1020.4
20260504232056 23 296 3.2 9.7 0.00 0.69 0.69 42 1020.4
20260504231956 23 282 1.6 8.0 0.00 0.69 0.69 49 1013.0
20260504231856 23 305 1.6 9.7 0.00 0.69 0.69 49 1013.0
20260504231726 23 242 1.6 4.8 0.00 0.69 0.69 42 1020.4
20260504231626 23 328 3.2 4.8 0.00 0.69 0.69 49 1013.0
20260504231456 23 324 3.2 9.7 0.00 0.69 0.69 42 1020.4
20260504231356 23 246 1.6 4.8 0.00 0.69 0.69 48 1013.0
20260504231226 23 101 3.2 9.7 0.00 0.69 0.69 48 1013.0
20260504231126 23 170 1.6 9.7 0.00 0.69 0.69 42 1020.4
20260504231026 24 175 1.6 3.2 0.00 0.69 0.69 47 1013.1
20260504230856 23 250 3.2 9.7 0.00 0.69 0.69 42 1020.4
20260504230726 24 311 3.2 4.8 0.00 0.69 0.69 47 1013.2
20260504230556 24 241 1.6 4.8 0.00 0.69 0.69 47 1013.2
20260504230426 24 249 1.6 4.8 0.00 0.69 0.69 48 1013.2
20260504230326 23 171 1.6 4.8 0.00 0.69 0.69 42 1020.4
20260504230156 23 170 3.2 4.8 0.00 0.69 0.69 42 1020.4
20260504230056 23 322 3.2 11.3 0.00 0.69 0.69 42 1020.4
20260504225956 24 306 1.6 8.0 0.00 0.69 0.69 47 1013.3
20260504225826 24 321 1.6 3.2 0.00 0.69 0.69 47 1013.3
20260504225726 24 321 1.6 4.8 0.00 0.69 0.69 47 1013.3
20260504225626 24 119 1.6 8.0 0.00 0.69 0.69 47 1013.3
20260504225526 23 314 3.2 9.7 0.00 0.69 0.69 42 1020.4
20260504225356 24 268 1.6 4.8 0.00 0.69 0.69 47 1013.3
20260504225226 24 271 1.6 8.0 0.00 0.69 0.69 47 1013.2
20260504225056 23 352 1.6 9.7 0.00 0.69 0.69 42 1020.4
20260504224956 23 60 3.2 8.0 0.00 0.69 0.69 42 1020.4
20260504224856 25 114 3.2 9.7 0.00 0.69 0.69 46 1013.3
20260504224756 23 276 3.2 9.7 0.00 0.69 0.69 42 1020.4
20260504224626 23 207 3.2 4.8 0.00 0.69 0.69 42 1020.4
20260504224526 25 145 1.6 11.3 0.00 0.69 0.69 46 1013.4
20260504224426 23 308 1.6 3.2 0.00 0.69 0.69 42 1020.4
20260504224256 23 174 1.6 11.3 0.00 0.69 0.69 42 1020.4
20260504224156 23 220 1.6 3.2 0.00 0.69 0.69 42 1020.4
20260504224056 23 179 1.6 8.0 0.00 0.69 0.69 42 1020.4
20260504223956 23 244 3.2 8.0 0.00 0.69 0.69 42 1020.4
20260504223856 23 12 3.2 11.3 0.00 0.69 0.69 42 1020.4
20260504223756 25 151 3.2 11.3 0.00 0.69 0.69 46 1013.3
20260504223656 25 156 3.2 9.7 0.00 0.69 0.69 46 1013.3
20260504223556 25 146 3.2 8.0 0.00 0.69 0.69 46 1013.3
20260504223426 25 154 1.6 9.7 0.00 0.69 0.69 46 1013.3
20260504223326 25 272 0.0 4.8 0.00 0.69 0.69 46 1013.3
20260504223156 25 280 1.6 3.2 0.00 0.69 0.69 46 1013.2
20260504223056 25 238 1.6 4.8 0.00 0.69 0.69 47 1013.2
20260504222956 25 263 1.6 4.8 0.00 0.69 0.69 47 1013.3
20260504222856 23 190 1.6 4.8 0.00 0.69 0.69 42 1020.4
20260504222756 24 244 1.6 9.7 0.00 0.69 0.69 47 1013.3
20260504222656 24 264 1.6 4.8 0.00 0.69 0.69 47 1013.3
20260504222556 23 208 1.6 4.8 0.00 0.69 0.69 42 1020.4
20260504222426 24 216 3.2 4.8 0.00 0.69 0.69 48 1013.3
20260504222326 24 180 3.2 8.0 0.00 0.69 0.69 48 1013.4
20260504222226 23 231 3.2 8.0 0.00 0.69 0.69 42 1020.4
20260504222126 23 166 3.2 9.7 0.00 0.69 0.69 42 1020.4
20260504222026 23 85 3.2 9.7 0.00 0.69 0.69 42 1020.4
20260504221926 23 206 1.6 9.7 0.00 0.69 0.69 42 1020.4
20260504221826 24 113 3.2 11.3 0.00 0.69 0.69 47 1013.4
20260504221726 24 167 3.2 11.3 0.00 0.69 0.69 47 1013.4
20260504221626 24 120 1.6 4.8 0.00 0.69 0.69 47 1013.4
20260504221456 23 229 3.2 9.7 0.00 0.69 0.69 42 1020.4
20260504221356 25 176 3.2 11.3 0.00 0.69 0.69 47 1013.4
20260504221226 25 163 1.6 11.3 0.00 0.69 0.69 47 1013.4
20260504221126 23 216 1.6 9.7 0.00 0.69 0.69 42 1020.4
20260504220956 25 179 3.2 12.9 0.00 0.69 0.69 46 1013.4
20260504220826 23 217 1.6 4.8 0.00 0.69 0.69 42 1020.4
20260504220726 23 300 1.6 4.8 0.00 0.69 0.69 42 1020.4
20260504220556 23 173 1.6 11.3 0.00 0.69 0.69 42 1020.4
20260504220456 23 63 3.2 3.2 0.00 0.69 0.69 42 1020.4
20260504220356 24 254 3.2 9.7 0.00 0.69 0.69 46 1013.3
20260504220256 24 297 3.2 9.7 0.00 0.69 0.69 47 1013.4
20260504220156 25 177 3.2 8.0 0.00 0.69 0.69 47 1013.4
20260504220056 23 215 3.2 12.9 0.00 0.69 0.69 42 1020.4
20260504215926 23 234 3.2 12.9 0.00 0.69 0.69 42 1020.4
20260504215756 25 162 3.2 9.7 0.00 0.69 0.69 47 1013.5
20260504215626 25 165 3.2 9.7 0.00 0.69 0.69 47 1013.5
20260504215526 23 191 3.2 9.7 0.00 0.69 0.69 42 1020.4
20260504215426 25 170 1.6 9.7 0.00 0.69 0.69 46 1013.5
20260504215256 23 17 1.6 8.0 0.00 0.69 0.69 42 1020.4
20260504215126 23 152 1.6 8.0 0.00 0.69 0.69 42 1020.4
20260504215026 25 146 3.2 9.7 0.00 0.69 0.69 46 1013.4
20260504214856 23 174 1.6 11.3 0.00 0.69 0.69 42 1020.4
20260504214726 25 158 3.2 4.8 0.00 0.69 0.69 45 1013.3
20260504214626 25 177 3.2 12.9 0.00 0.69 0.69 45 1013.4
20260504214526 23 333 1.6 9.7 0.00 0.69 0.69 42 1020.4
20260504214356 25 294 1.6 1.6 0.00 0.69 0.69 46 1013.3
20260504214226 25 308 1.6 8.0 0.00 0.69 0.69 46 1013.4
20260504214126 25 3 1.6 4.8 0.00 0.69 0.69 46 1013.3
20260504214026 23 152 1.6 8.0 0.00 0.69 0.69 42 1020.4
20260504213926 25 151 1.6 4.8 0.00 0.69 0.69 47 1013.4
20260504213826 25 13 1.6 4.8 0.00 0.69 0.69 46 1013.4
20260504213656 23 106 3.2 11.3 0.00 0.69 0.69 42 1020.4
20260504213526 23 25 3.2 4.8 0.00 0.69 0.69 42 1020.4
20260504213426 25 172 3.2 8.0 0.00 0.69 0.69 45 1013.5
20260504213326 23 164 3.2 9.7 0.00 0.69 0.69 42 1020.4
20260504213226 23 209 1.6 4.8 0.00 0.69 0.69 42 1020.4
20260504213056 25 155 1.6 4.8 0.00 0.69 0.69 46 1013.5
20260504212956 23 222 1.6 4.8 0.00 0.69 0.69 42 1020.4
20260504212826 23 267 3.2 3.2 0.00 0.69 0.69 42 1020.4
20260504212726 25 223 1.6 8.0 0.00 0.69 0.69 46 1013.5
20260504212626 23 3 1.6 3.2 0.00 0.69 0.69 42 1020.4
20260504212456 25 155 3.2 12.9 0.00 0.69 0.69 45 1013.5
20260504212356 25 206 3.2 9.7 0.00 0.69 0.69 46 1013.6
20260504212256 23 128 3.2 8.0 0.00 0.69 0.69 42 1020.4
20260504212156 25 11 1.6 8.0 0.00 0.69 0.69 46 1013.6
20260504212056 23 30 1.6 3.2 0.00 0.69 0.69 42 1020.4
20260504211926 25 1 3.2 8.0 0.00 0.69 0.69 45 1013.6
20260504211826 23 208 1.6 4.8 0.00 0.69 0.69 42 1020.4
20260504211726 23 323 3.2 4.8 0.00 0.69 0.69 42 1020.4
20260504211626 25 145 3.2 11.3 0.00 0.69 0.69 45 1013.7
20260504211456 25 173 1.6 4.8 0.00 0.69 0.69 46 1013.6
20260504211356 25 233 1.6 4.8 0.00 0.69 0.69 46 1013.6
20260504211256 23 262 1.6 4.8 0.00 0.69 0.69 42 1020.4
20260504211156 23 160 3.2 9.7 0.00 0.69 0.69 42 1020.4
20260504211056 23 150 3.2 9.7 0.00 0.69 0.69 42 1020.4
20260504210956 25 150 1.6 4.8 0.00 0.69 0.69 46 1013.6
20260504210856 23 162 1.6 4.8 0.00 0.69 0.69 42 1020.4
20260504210756 25 99 3.2 4.8 0.00 0.69 0.69 45 1013.5
20260504210626 25 115 3.2 9.7 0.00 0.69 0.69 46 1013.5
20260504210526 23 237 1.6 8.0 0.00 0.69 0.69 42 1020.4
20260504210356 23 204 3.2 11.3 0.00 0.69 0.69 42 1020.4
20260504210226 25 163 1.6 11.3 0.00 0.69 0.69 46 1013.6
20260504210126 25 93 1.6 4.8 0.00 0.69 0.69 45 1013.5
20260504205956 23 191 1.6 4.8 0.00 0.69 0.69 42 1020.4
20260504205826 25 313 1.6 4.8 0.00 0.69 0.69 46 1013.5
20260504205726 24 172 1.6 8.0 0.00 0.69 0.69 47 1013.4
20260504205626 24 195 1.6 8.0 0.00 0.69 0.69 47 1013.4
20260504205526 23 134 1.6 4.8 0.00 0.69 0.69 42 1020.4
20260504205356 24 160 3.2 4.8 0.00 0.69 0.69 46 1013.4
20260504205256 24 136 3.2 9.7 0.00 0.69 0.69 46 1013.5
20260504205156 23 135 3.2 9.7 0.00 0.69 0.69 42 1020.4
20260504205056 24 192 3.2 8.0 0.00 0.69 0.69 47 1013.5
20260504204926 24 232 3.2 4.8 0.00 0.69 0.69 47 1013.5
20260504204826 23 248 4.8 4.8 0.00 0.69 0.69 42 1020.4
20260504204656 24 106 3.2 12.9 0.00 0.69 0.69 48 1013.6
20260504204556 23 178 3.2 8.0 0.00 0.69 0.69 42 1020.4
20260504204426 25 165 3.2 4.8 0.00 0.69 0.69 47 1013.6
20260504204256 23 191 3.2 11.3 0.00 0.69 0.69 42 1020.4
20260504204156 25 178 3.2 9.7 0.00 0.69 0.69 46 1013.6
20260504204026 25 228 3.2 8.0 0.00 0.69 0.69 47 1013.5
20260504203926 23 172 1.6 9.7 0.00 0.69 0.69 42 1020.4
20260504203826 25 293 1.6 4.8 0.00 0.69 0.69 47 1013.6
20260504203726 25 278 3.2 4.8 0.00 0.69 0.69 47 1013.5
20260504203626 25 179 3.2 8.0 0.00 0.69 0.69 47 1013.5
20260504203526 23 28 3.2 8.0 0.00 0.69 0.69 42 1020.4
20260504203426 25 207 3.2 4.8 0.00 0.69 0.69 47 1013.6
20260504203326 25 182 3.2 8.0 0.00 0.69 0.69 47 1013.7
20260504203156 25 167 3.2 4.8 0.00 0.69 0.69 46 1013.7
20260504203056 25 167 3.2 9.7 0.00 0.69 0.69 45 1013.6
20260504202926 23 312 3.2 11.3 0.00 0.69 0.69 42 1020.4
20260504202756 25 147 3.2 8.0 0.00 0.69 0.69 45 1013.7
20260504202656 23 327 3.2 8.0 0.00 0.69 0.69 42 1020.4
20260504202526 25 302 1.6 12.9 0.00 0.69 0.69 46 1013.8
20260504202426 25 258 3.2 3.2 0.00 0.69 0.69 46 1013.8
20260504202326 25 343 3.2 4.8 0.00 0.69 0.69 46 1013.8
20260504202156 23 193 3.2 4.8 0.00 0.69 0.69 42 1020.4
20260504202056 25 171 3.2 9.7 0.00 0.69 0.69 46 1013.9
20260504201956 25 230 3.2 8.0 0.00 0.69 0.69 46 1013.8
20260504201856 23 358 4.8 9.7 0.00 0.69 0.69 42 1020.4
20260504201756 23 135 3.2 12.9 0.00 0.69 0.69 42 1020.4
20260504201656 25 208 1.6 11.3 0.00 0.69 0.69 45 1013.8
20260504201526 25 278 1.6 4.8 0.00 0.69 0.69 46 1013.8
20260504201426 23 286 1.6 4.8 0.00 0.69 0.69 42 1020.4
20260504201256 25 292 3.2 4.8 0.00 0.69 0.69 46 1013.9
20260504201156 23 130 3.2 8.0 0.00 0.69 0.69 42 1020.4
20260504201056 25 186 3.2 11.3 0.00 0.69 0.69 45 1013.9
20260504200926 23 81 1.6 8.0 0.00 0.69 0.69 42 1020.4
20260504200756 23 90 1.6 4.8 0.00 0.69 0.69 42 1020.4
20260504200626 25 276 1.6 4.8 0.00 0.69 0.69 45 1013.8
20260504200526 25 112 1.6 4.8 0.00 0.69 0.69 46 1013.9
20260504200356 25 81 1.6 3.2 0.00 0.69 0.69 46 1013.9
20260504200256 23 20 1.6 4.8 0.00 0.69 0.69 42 1020.4
20260504200156 25 107 3.2 4.8 0.00 0.69 0.69 45 1013.9
20260504200056 25 185 3.2 8.0 0.00 0.69 0.69 45 1014.0
20260504195956 25 228 3.2 4.8 0.00 0.69 0.69 44 1014.1
20260504195826 23 260 1.6 9.7 0.00 0.69 0.69 42 1020.4
20260504195726 23 323 1.6 9.7 0.00 0.69 0.69 42 1020.4
20260504195626 23 67 1.6 4.8 0.00 0.69 0.69 42 1020.4
20260504195526 25 95 1.6 9.7 0.00 0.69 0.69 47 1014.0
20260504195426 23 145 1.6 4.8 0.00 0.69 0.69 42 1020.4
20260504195326 25 85 3.2 4.8 0.00 0.69 0.69 46 1013.9
20260504195226 23 199 3.2 9.7 0.00 0.69 0.69 42 1020.4
20260504195126 23 192 3.2 8.0 0.00 0.69 0.69 42 1020.4
20260504195026 25 135 3.2 4.8 0.00 0.69 0.69 46 1014.0
20260504194926 25 110 1.6 4.8 0.00 0.69 0.69 45 1014.0
20260504194826 25 83 1.6 9.7 0.00 0.69 0.69 44 1014.1
20260504194656 25 285 3.2 8.0 0.00 0.69 0.69 43 1014.2
20260504194556 25 190 3.2 8.0 0.00 0.69 0.69 44 1014.1
20260504194456 23 212 1.6 9.7 0.00 0.69 0.69 42 1020.4
20260504194356 25 186 1.6 3.2 0.00 0.69 0.69 44 1014.1
20260504194256 23 218 3.2 4.8 0.00 0.69 0.69 42 1020.4
20260504194126 23 243 3.2 11.3 0.00 0.69 0.69 42 1020.4
20260504194026 25 277 1.6 11.3 0.00 0.69 0.69 44 1014.3
20260504193926 23 25 1.6 4.8 0.00 0.69 0.69 42 1020.4
20260504193826 25 31 3.2 3.2 0.00 0.69 0.69 45 1014.3
20260504193656 23 291 1.6 4.8 0.00 0.69 0.69 42 1020.4
20260504193556 25 180 1.6 4.8 0.00 0.69 0.69 44 1014.3
20260504193426 23 218 1.6 4.8 0.00 0.69 0.69 42 1020.4
20260504193326 25 269 1.6 9.7 0.00 0.69 0.69 45 1014.4
20260504193226 23 123 0.0 4.8 0.00 0.69 0.69 42 1020.4
20260504193126 25 21 1.6 3.2 0.00 0.69 0.69 44 1014.3
20260504193026 25 342 3.2 4.8 0.00 0.69 0.69 45 1014.2
20260504192926 23 70 1.6 4.8 0.00 0.69 0.69 42 1020.4
20260504192756 25 104 3.2 4.8 0.00 0.69 0.69 46 1014.3
20260504192626 25 274 3.2 8.0 0.00 0.69 0.69 46 1014.3
20260504192526 23 160 4.8 8.0 0.00 0.69 0.69 42 1020.4
20260504192426 25 191 3.2 11.3 0.00 0.69 0.69 45 1014.3
20260504192256 25 196 3.2 9.7 0.00 0.69 0.69 44 1014.3
20260504192156 23 245 1.6 9.7 0.00 0.69 0.69 42 1020.4
20260504192026 23 178 1.6 8.0 0.00 0.69 0.69 42 1020.4
20260504191856 23 202 3.2 8.0 0.00 0.69 0.69 42 1020.4
20260504191726 25 187 1.6 8.0 0.00 0.69 0.69 43 1014.5
20260504191556 23 257 1.6 9.7 0.00 0.69 0.69 42 1020.4
20260504191456 25 54 1.6 9.7 0.00 0.69 0.69 44 1014.5
20260504191326 25 102 1.6 9.7 0.00 0.69 0.69 43 1014.5
20260504191226 23 168 3.2 9.7 0.00 0.69 0.69 42 1020.4
20260504191056 25 267 1.6 3.2 0.00 0.69 0.69 44 1014.5
20260504190956 25 207 3.2 9.7 0.00 0.69 0.69 43 1014.6
20260504190856 23 180 1.6 4.8 0.00 0.69 0.69 42 1020.4
20260504190756 25 151 1.6 9.7 0.00 0.69 0.69 43 1014.6
20260504190626 23 136 1.6 4.8 0.00 0.69 0.69 42 1020.4
20260504190456 25 177 3.2 4.8 0.00 0.69 0.69 42 1014.6
20260504190356 23 202 1.6 9.7 0.00 0.69 0.69 42 1020.4
20260504190226 23 195 1.6 4.8 0.00 0.69 0.69 42 1020.4
20260504190126 25 243 3.2 9.7 0.00 0.69 0.69 42 1014.6
20260504190026 25 181 3.2 9.7 0.00 0.69 0.69 41 1014.7
20260504185926 25 177 1.6 9.7 0.00 0.69 0.69 42 1014.7
20260504185826 25 193 3.2 4.8 0.00 0.69 0.69 41 1014.8
20260504185726 23 146 3.2 8.0 0.00 0.69 0.69 42 1020.4
20260504185626 23 181 3.2 9.7 0.00 0.69 0.69 42 1020.4
20260504185526 25 254 1.6 4.8 0.00 0.69 0.69 42 1014.7
20260504185426 23 31 1.6 3.2 0.00 0.69 0.69 42 1020.4
20260504185256 25 310 1.6 8.0 0.00 0.69 0.69 42 1014.7
20260504185156 25 169 3.2 8.0 0.00 0.69 0.69 41 1014.7
20260504185056 23 231 3.2 11.3 0.00 0.69 0.69 42 1020.4
20260504184926 25 147 3.2 11.3 0.00 0.69 0.69 41 1014.7
20260504184826 25 169 1.6 4.8 0.00 0.69 0.69 42 1014.7
20260504184726 23 198 3.2 8.0 0.00 0.69 0.69 42 1020.4
20260504184626 23 192 3.2 11.3 0.00 0.69 0.69 42 1020.4
20260504184526 25 317 3.2 11.3 0.00 0.69 0.69 41 1014.8
20260504184356 25 175 3.2 4.8 0.00 0.69 0.69 40 1014.9
20260504184226 23 224 3.2 12.9 0.00 0.69 0.69 42 1020.4
20260504184056 25 57 1.6 9.7 0.00 0.69 0.69 42 1014.9
20260504183956 25 167 3.2 8.0 0.00 0.69 0.69 42 1014.9
20260504183856 25 134 1.6 8.0 0.00 0.69 0.69 42 1014.9
20260504183756 25 25 3.2 4.8 0.00 0.69 0.69 42 1014.8
20260504183656 23 162 1.6 9.7 0.00 0.69 0.69 42 1020.4
20260504183556 25 182 1.6 8.0 0.00 0.69 0.69 43 1014.9
20260504183456 25 33 0.0 3.2 0.00 0.69 0.69 42 1015.0
20260504183356 25 64 1.6 3.2 0.00 0.69 0.69 41 1014.9
20260504183226 23 72 3.2 8.0 0.00 0.69 0.69 42 1020.4
20260504183126 25 113 1.6 3.2 0.00 0.69 0.69 43 1015.0
20260504183026 25 145 1.6 4.8 0.00 0.69 0.69 43 1014.9
20260504182926 25 326 1.6 3.2 0.00 0.69 0.69 42 1015.0
20260504182826 23 45 1.6 8.0 0.00 0.69 0.69 42 1020.4
20260504182726 25 123 1.6 8.0 0.00 0.69 0.69 43 1015.0
20260504182626 25 332 1.6 3.2 0.00 0.69 0.69 43 1015.0
20260504182456 23 61 1.6 4.8 0.00 0.69 0.69 42 1020.4
20260504182356 25 159 1.6 4.8 0.00 0.69 0.69 43 1015.0
20260504182256 25 29 3.2 4.8 0.00 0.69 0.69 43 1014.9
20260504182126 25 249 1.6 11.3 0.00 0.69 0.69 42 1014.9
20260504182026 25 53 3.2 8.0 0.00 0.69 0.69 41 1014.9
20260504181856 25 199 1.6 9.7 0.00 0.69 0.69 42 1015.0
20260504181756 25 39 1.6 9.7 0.00 0.69 0.69 43 1015.0
20260504181656 25 202 1.6 9.7 0.00 0.69 0.69 42 1015.1
20260504181556 23 168 1.6 4.8 0.00 0.69 0.69 42 1020.4
20260504181426 23 94 1.6 4.8 0.00 0.69 0.69 42 1020.4
20260504181326 23 297 1.6 4.8 0.00 0.69 0.69 42 1020.4
20260504181226 25 330 1.6 9.7 0.00 0.69 0.69 43 1015.1
20260504181126 25 123 1.6 3.2 0.00 0.69 0.69 42 1015.2
20260504181026 25 67 1.6 3.2 0.00 0.69 0.69 42 1015.1
20260504180926 25 255 3.2 4.8 0.00 0.69 0.69 42 1015.2
20260504180826 25 231 3.2 9.7 0.00 0.69 0.69 43 1015.1
20260504180726 23 188 1.6 9.7 0.00 0.69 0.69 42 1020.4
20260504180626 23 231 1.6 3.2 0.00 0.69 0.69 42 1020.4
20260504180526 25 79 1.6 4.8 0.00 0.69 0.69 41 1015.1
20260504180426 25 329 1.6 4.8 0.00 0.69 0.69 42 1015.1
20260504180326 23 70 1.6 4.8 0.00 0.69 0.69 42 1020.4
20260504180226 25 180 1.6 8.0 0.00 0.69 0.69 42 1015.1
20260504180126 25 201 1.6 4.8 0.00 0.69 0.69 42 1015.2
20260504180026 25 97 1.6 3.2 0.00 0.69 0.69 41 1015.2
20260504175926 25 302 3.2 4.8 0.00 0.69 0.69 41 1015.2
20260504175826 23 209 3.2 4.8 0.00 0.69 0.69 42 1020.4
20260504175656 25 4 1.6 4.8 0.00 0.69 0.69 42 1015.2
20260504175526 25 338 1.6 4.8 0.00 0.69 0.69 43 1015.2
20260504175426 25 209 1.6 4.8 0.00 0.69 0.69 42 1015.2
20260504175326 25 272 1.6 4.8 0.00 0.69 0.69 42 1015.2
20260504175226 23 275 1.6 4.8 0.00 0.69 0.69 42 1020.4
20260504175126 23 171 1.6 4.8 0.00 0.69 0.69 42 1020.4
20260504175026 24 23 1.6 8.0 0.00 0.69 0.69 43 1015.2
20260504174926 24 301 1.6 4.8 0.00 0.69 0.69 44 1015.2
20260504174826 23 41 1.6 4.8 0.00 0.69 0.69 42 1020.4
20260504174726 23 44 1.6 4.8 0.00 0.69 0.69 42 1020.4
20260504174626 24 341 1.6 4.8 0.00 0.69 0.69 42 1015.3
20260504174526 23 188 3.2 8.0 0.00 0.69 0.69 42 1020.4
20260504174356 23 204 3.2 12.9 0.00 0.69 0.69 42 1020.4
20260504174256 24 238 1.6 4.8 0.00 0.69 0.69 43 1015.3
20260504174156 23 266 0.0 4.8 0.00 0.69 0.69 42 1020.4
20260504174056 23 47 1.6 3.2 0.00 0.69 0.69 42 1020.4
20260504173956 23 98 3.2 8.0 0.00 0.69 0.69 42 1020.4
20260504173856 24 121 1.6 4.8 0.00 0.69 0.69 44 1015.3
20260504173726 24 55 3.2 3.2 0.00 0.69 0.69 44 1015.4
20260504173626 23 96 1.6 8.0 0.00 0.69 0.69 42 1020.4
20260504173456 24 278 3.2 4.8 0.00 0.69 0.69 42 1015.4
20260504173356 23 212 3.2 11.3 0.00 0.69 0.69 42 1020.4
20260504173226 23 217 3.2 11.3 0.00 0.69 0.69 42 1020.4
20260504173056 23 342 1.6 3.2 0.00 0.69 0.69 46 1015.5
20260504172926 23 137 1.6 4.8 0.00 0.69 0.69 45 1015.5
20260504172756 23 51 3.2 4.8 0.00 0.69 0.69 44 1015.5
20260504172626 23 61 3.2 9.7 0.00 0.69 0.69 42 1020.4
20260504172526 23 49 1.6 8.0 0.00 0.69 0.69 42 1020.4
20260504172426 23 67 3.2 9.7 0.00 0.69 0.69 42 1020.4
20260504172256 24 175 4.8 11.3 0.00 0.69 0.69 43 1015.5
20260504172126 24 157 4.8 14.5 0.00 0.69 0.69 43 1015.6
20260504171956 23 73 1.6 4.8 0.00 0.69 0.69 42 1020.4
20260504171856 24 105 3.2 9.7 0.00 0.69 0.69 43 1015.7
20260504171726 24 158 1.6 9.7 0.00 0.69 0.69 44 1015.6
20260504171626 23 81 1.6 4.8 0.00 0.69 0.69 42 1020.4
20260504171526 24 136 1.6 3.2 0.00 0.69 0.69 44 1015.6
20260504171426 23 41 1.6 3.2 0.00 0.69 0.69 42 1020.4
20260504171326 24 60 1.6 4.8 0.00 0.69 0.69 43 1015.6
20260504171156 23 293 1.6 4.8 0.00 0.69 0.69 42 1020.4
20260504171056 24 112 1.6 3.2 0.00 0.69 0.69 43 1015.6
20260504170956 23 127 3.2 4.8 0.00 0.69 0.69 42 1020.4
20260504170826 23 252 3.2 4.8 0.00 0.69 0.69 42 1020.4
20260504170726 23 188 4.8 12.9 0.00 0.69 0.69 42 1020.4
20260504170626 24 158 3.2 12.9 0.00 0.69 0.69 42 1015.6
20260504170526 24 245 3.2 4.8 0.00 0.69 0.69 41 1015.6
20260504170426 23 229 3.2 8.0 0.00 0.69 0.69 42 1020.4
20260504170326 23 183 3.2 9.7 0.00 0.69 0.69 42 1020.4
20260504170226 24 223 1.6 4.8 0.00 0.69 0.69 43 1015.6
20260504170126 23 92 1.6 4.8 0.00 0.69 0.69 42 1020.4
20260504160356 23 208 1.6 9.7 0.00 0.69 0.69 42 1020.4
20260504160256 24 326 3.2 8.0 0.00 0.69 0.69 47 1016.1
20260504160156 24 109 1.6 11.3 0.00 0.69 0.69 47 1016.2
20260504151056 22 58 0.0 0.0 0.00 0.69 0.69 52 1016.4
20260504150956 23 48 1.6 4.8 0.00 0.69 0.69 42 1020.4
20260504150856 23 55 1.6 4.8 0.00 0.69 0.69 42 1020.4
20260504150756 23 56 0.0 3.2 0.00 0.69 0.69 42 1020.4
20260504150656 22 60 0.0 0.0 0.00 0.69 0.69 52 1016.4
20260504150526 22 60 0.0 0.0 0.00 0.69 0.69 52 1016.5
20260504150356 22 72 0.0 1.6 0.00 0.69 0.69 53 1016.4
20260504150256 23 205 0.0 0.0 0.00 0.69 0.69 42 1020.4
20260504150156 22 223 0.0 0.0 0.00 0.69 0.69 52 1016.4
20260504141256 23 346 0.0 1.6 0.00 0.69 0.69 42 1020.4
20260504141125 23 31 0.0 3.2 0.00 0.69 0.69 42 1020.4
20260504141025 23 308 0.0 4.8 0.00 0.69 0.69 42 1020.4
20260504140925 23 306 0.0 0.0 0.00 0.69 0.69 42 1020.4
20260504140825 23 306 0.0 0.0 0.00 0.69 0.69 42 1020.4
20260504140726 22 304 0.0 3.2 0.00 0.69 0.69 47 1016.8
20260504140626 23 33 0.0 1.6 0.00 0.69 0.69 42 1020.4
20260504140525 22 50 0.0 3.2 0.00 0.69 0.69 47 1016.8
20260504140356 23 42 0.0 3.2 0.00 0.69 0.69 42 1020.4
20260504140255 22 316 0.0 0.0 0.00 0.69 0.69 52 1016.9
20260504140155 22 315 0.0 0.0 0.00 0.69 0.69 50 1017.0
20260504130725 23 348 0.0 0.0 0.00 0.69 0.69 42 1020.4
20260504130555 19 348 0.0 0.0 0.00 0.69 0.69 69 1015.8
20260504130426 23 348 0.0 0.0 0.00 0.69 0.69 42 1020.4
20260504130256 23 340 0.0 0.0 0.00 0.69 0.69 42 1020.4
20260504130155 18 311 0.0 0.0 0.00 0.69 0.69 70 1015.9
20260504120255 23 289 0.0 0.0 0.00 0.69 0.69 42 1020.4
20260504120125 12 289 0.0 0.0 0.00 0.69 0.69 92 1014.5
20260504110655 23 292 0.0 0.0 0.00 0.69 0.69 42 1020.4
20260504110555 12 291 0.0 0.0 0.00 0.69 0.69 91 1014.3
20260504110425 12 291 0.0 0.0 0.00 0.69 0.69 91 1014.3
20260504110325 23 292 0.0 0.0 0.00 0.69 0.69 42 1020.4
20260504110155 12 291 0.0 0.0 0.00 0.69 0.69 91 1014.4
20260504100455 12 291 0.0 0.0 0.00 0.69 0.69 89 1014.5
20260504100355 23 292 0.0 0.0 0.00 0.69 0.69 42 1020.4
20260504100255 12 291 0.0 0.0 0.00 0.69 0.69 89 1014.5
20260504100125 12 291 0.0 0.0 0.00 0.69 0.69 89 1014.5
20260504090125 12 288 0.0 0.0 0.00 0.69 0.69 87 1014.6
20260504081925 23 300 0.0 0.0 0.00 0.69 0.69 42 1020.4
20260504081825 13 300 0.0 0.0 0.00 0.69 0.69 82 1014.7
20260504081725 23 300 0.0 0.0 0.00 0.69 0.69 42 1020.4
20260504081625 23 300 0.0 0.0 0.00 0.69 0.69 42 1020.4
20260504081525 23 300 0.0 0.0 0.00 0.69 0.69 42 1020.4
20260504081355 13 300 0.0 0.0 0.00 0.69 0.69 82 1014.7
20260504081255 23 300 0.0 0.0 0.00 0.69 0.69 42 1020.4
20260504081125 13 300 0.0 0.0 0.00 0.69 0.69 82 1014.7
20260504080956 13 300 0.0 0.0 0.00 0.69 0.69 81 1014.7
20260504080825 13 300 0.0 0.0 0.00 0.69 0.69 81 1014.7
20260504080725 23 300 0.0 0.0 0.00 0.69 0.69 42 1020.4
20260504080555 13 300 0.0 0.0 0.00 0.69 0.69 81 1014.7
20260504080425 13 300 0.0 0.0 0.00 0.69 0.69 81 1014.7
20260504080325 23 300 0.0 0.0 0.00 0.69 0.69 42 1020.4
20260504080225 14 300 0.0 0.0 0.00 0.69 0.69 81 1014.7
20260504080125 23 300 0.0 0.0 0.00 0.69 0.69 42 1020.4